Bakersfield, CA

7:48 AM PST on December 06, 2019 (GMT -0800)
Meadows

Weather History for KBFL - November, 2019

Change the Weather History Date:

Wednesday, November 13, 2019

  Actual Average Record
Temperature  
Mean Temperature 64 °F 56 °F  
Max Temperature 78 °F 67 °F 86 °F (1990)
Min Temperature 51 °F 45 °F 25 °F (1916)
Degree Days  
Heating Degree Days 0    
Month to date heating degree days 23  
Since 1 July heating degree days 80  
Cooling Degree Days 0    
Month to date cooling degree days 2  
Year to date cooling degree days 2508  
Growing Degree Days 14 (Base 50)    
Moisture  
Dew Point 39 °F    
Average Humidity 42    
Maximum Humidity 55    
Minimum Humidity 25    
Precipitation  
Precipitation 0.00 in 0.02 in 0.75 in (1930)
Month to date precipitation 0.00 0.25  
Year to date precipitation 6.52 5.06  
Snow  
Snow 0.00 in - - ()
Month to date snowfall 0.0  
Since 1 July snowfall 0.0  
Since 1 September snowfall 0.0  
Snow Depth 0.00 in    
Sea Level Pressure  
Sea Level Pressure 29.97 in    
Wind  
Wind Speed 3 mph ()    
Max Wind Speed 9 mph    
Max Gust Speed 10 mph    
Visibility 6.8 miles    
Events      
T = Trace of Precipitation, MM = Missing Value Source: Averaged Metar Reports

Daily Weather History Graph

Daily Weather History Graph

Search for Another Location

Airport or City:

Astronomy

Nov. 13, 2019 Rise Set
Actual Time 6:29 AM PST 4:51 PM PST
Civil Twilight 6:02 AM PST 5:18 PM PST
Nautical Twilight 5:31 AM PST 5:48 PM PST
Astronomical Twilight 5:01 AM PST 6:18 PM PST
Moon 5:59 PM PST (11/13) 7:27 AM PST (11/13)
Length of Visible Light 11h 15m
Length of Day
10h 21m
Full, 98% of the Moon is Illuminated
Nov 13
Full
Nov 19
Last Quarter
Nov 26
New
Dec 3
First Quarter
Dec 11
Full

Hourly Weather History & Observations

Time (PST) Temp. Dew Point Humidity Pressure Visibility Wind Dir Wind Speed Gust Speed Precip Events Conditions
12:54 AM 55.0 °F 37.9 °F 53% 30.01 in 7.0 mi NE 4.6 mph - N/A   Clear
1:54 AM 54.0 °F 37.0 °F 53% 30.00 in 7.0 mi Calm Calm - N/A   Clear
2:54 AM 54.0 °F 37.0 °F 53% 29.99 in 7.0 mi NE 5.8 mph - N/A   Clear
3:54 AM 53.1 °F 37.0 °F 55% 30.00 in 7.0 mi Calm Calm - N/A   Clear
4:54 AM 53.1 °F 37.0 °F 55% 30.00 in 8.0 mi East 3.5 mph - N/A   Clear
5:54 AM 52.0 °F 36.0 °F 54% 29.99 in 7.0 mi Calm Calm - N/A   Clear
6:54 AM 52.0 °F 35.1 °F 53% 30.00 in 6.0 mi Calm Calm - N/A   Clear
7:54 AM 57.0 °F 36.0 °F 45% 30.01 in 6.0 mi Calm Calm - N/A   Clear
8:54 AM 62.1 °F 35.1 °F 37% 30.02 in 8.0 mi Calm Calm - N/A   Clear
9:54 AM 64.9 °F 34.0 °F 32% 30.01 in 8.0 mi Calm Calm - N/A   Clear
10:54 AM 69.1 °F 37.9 °F 32% 30.00 in 6.0 mi SSW 3.5 mph - N/A   Clear
11:54 AM 73.0 °F 39.0 °F 29% 29.96 in 7.0 mi WSW 4.6 mph - N/A   Clear
12:54 PM 75.0 °F 41.0 °F 29% 29.94 in 6.0 mi SW 4.6 mph - N/A   Clear
1:54 PM 78.1 °F 39.0 °F 25% 29.91 in 6.0 mi WNW 4.6 mph - N/A   Clear
2:54 PM 77.0 °F 41.0 °F 28% 29.91 in 6.0 mi West 6.9 mph - N/A   Clear
3:54 PM 77.0 °F 41.0 °F 28% 29.91 in 6.0 mi West 4.6 mph - N/A   Clear
4:54 PM 73.9 °F 44.1 °F 34% 29.92 in 5.0 mi West 5.8 mph - N/A   Clear
5:54 PM 68.0 °F 44.1 °F 42% 29.93 in 7.0 mi NNE 3.5 mph - N/A   Clear
6:54 PM 64.0 °F 43.0 °F 46% 29.94 in 7.0 mi NE 8.1 mph - N/A   Clear
7:54 PM 66.9 °F 42.1 °F 40% 29.95 in 7.0 mi ENE 6.9 mph - N/A   Clear
8:54 PM 60.1 °F 39.9 °F 47% 29.96 in 7.0 mi SSE 6.9 mph - N/A   Clear
9:54 PM 60.1 °F 41.0 °F 49% 29.96 in 7.0 mi East 4.6 mph - N/A   Clear
10:54 PM 61.0 °F 39.9 °F 46% 29.96 in 7.0 mi East 3.5 mph - N/A   Clear
11:54 PM 62.1 °F 39.9 °F 44% 29.96 in 7.0 mi Calm Calm - N/A   Clear